CZ-6C R/B, 100472

Orbit data source: Space-Track

CZ-6C R/B, 100472 is space debris in SSO originally from a launch on Tue, 25 Aug 2026 UTC launched from the Taiyaun Space Center, China (TSC). Debris objects in space refer to the collection of defunct objects orbiting the Earth. Examples of debris include non-operational satellites, rocket bodies, and fragments generated from explosions, collisions, or faulty payload assembly.

Not visible in the next 10 days
Identifier
100472, 2026-195H
Orbit
SSO
Country
Flag of CNCN / PRC
Related business
Manufacturer
SAST
Mission
Spacecraft
Bus & Motor
CZ-6 STAGE 2, Unknown motor
Mass
3,000 kg wet, 3,000 kg dry
Launch date (UTC)
2026-08-25 (2 weeks ago)
Launch vehicle
Unknown
Launch site
Taiyaun Space Center, China (TSC)
Object type
Payload
Rocket body
Debris
Shape & HBR
CYL, 4.0 m
Radar Cross Section
Large (>1 m²)

Expand to show TLE details & history
Last TLE update: 1 day ago

TLE from 1 day ago
0 CZ-6C R/B
1 A0472U 26195H   26250.74346130  .00012446  00000-0  26829-3 0  9996
2 A0472  97.5384 325.0306 0062049  69.4906 291.2985 15.42640070  2103
Epoch: 2026-09-07T17:50Z
TLE epoch observation values (Epoch: 2026-09-07T17:50:35.056Z)
Latitude
-0.0001°
Longitude
70.5647°
Altitude
426.301 km
Speed
7.664 km/s
True Right ascension
21h 40m 07s
True Declination
0° 00' 00"
Sunlit
Object was in full shadow at epoch
Visualization orbit readout
Latitude
Unknown
Longitude
Unknown
Altitude
Unknown
Speed
Unknown
Apparent Right ascension
Unknown
Apparent Declination
Unknown
Sunlit
N/A
Visualization observer readout
Local Sidereal Time
10:12:55
Azimuth
Unknown
Elevation
Unknown
Doppler factor
Unknown
Orbital elements
Apogee altitude
477.539 km
Perigee altitude
392.986 km
Semi-major axis
6,813.399 km
Eccentricity
0.0062
Inclination
97.5384°
RAAN
325.0306°
Arg. of periapsis
69.4906°
True anomaly
290.63418°
Mean anomaly
291.2985°
Eccentric anomaly
290.96652°
Mean motion
3.8592 °/min
Orbital period
93.28 mins
BSTAR
0.00026829
Loading maneuver chart data...
Computing Atmospheric mass density...
Loading historical data...
Loading historical data...
Loading historical data...
Loading historical data...
Loading historical data...
Loading historical data...
Loading historical data...

Documentation

Showing up to 5 results
|